Home   Weather   London   Past weeks

Flag for United Kingdom Past Weather in London, England, United Kingdom — Yesterday and Last 2 Weeks

Now
55 °F

Overcast.


Feels Like: 53 °F
Forecast: N/A
Wind: 10 mph from Southwest

Location: Northolt

Current Time: Dec 10, 2016 at 4:49:22 pm

Latest Report: Dec 10, 2016 at 3:50 pm


Visibility: N/A

Pressure: 30.09 "Hg

Humidity: 88%

Dew Point: 52 °F

Location of LondonLocation

Past Weather in London — Graph

°F

London Temperature Yesterday

Maximum temperature yesterday: 57 °F (at 12:50 pm)
Minimum temperature yesterday: 52 °F (at 6:50 pm)
Average temperature yesterday: 54 °F

High & Low Weather Summary for the Past Weeks

 TemperatureHumidityPressure
High57 °F (Dec 9, 12:50 pm)100% (Nov 26, 4:50 am)30.60 "Hg (Nov 26, 4:50 am)
Low21 °F (Nov 30, 4:50 am)40% (Nov 28, 11:50 am)30.09 "Hg (Dec 10, 2:50 pm)
Average42 °F84%30.30 "Hg
* Reported Nov 25 3:50 pm — Dec 10 3:50 pm, London, Weather by CustomWeather, © 2016

Note: Actual official high and low records may vary slightly from our data, if they occured in-between our weather recording intervals... More about our weather records

Advertising

London Weather History for the Previous 24 Hours

Scroll right to see more
 ConditionsComfort  
Time TempWeatherWind HumidityBarometerVisibility
3:50 pm
Sat, Dec 10
55 °FOvercast.10 mph88%30.09 "HgN/A
2:50 pm55 °FDrizzle. Partly sunny.8 mph94%30.09 "HgN/A
1:50 pm55 °FLow clouds.7 mph94%30.12 "HgN/A
12:50 pm55 °FPartly sunny.8 mph94%30.12 "HgN/A
11:50 am55 °FFog.6 mph94%30.15 "Hg6 mi
10:50 am55 °FFog.6 mph94%30.18 "Hg6 mi
9:50 am55 °FFog.7 mph88%30.18 "Hg6 mi
8:50 am54 °FPartly sunny.5 mph94%30.18 "HgN/A
7:50 am54 °FFog.7 mph94%30.15 "Hg4 mi
6:50 am54 °FFog.5 mph94%30.15 "Hg3 mi
5:50 am52 °FLow clouds.3 mph100%30.15 "Hg4 mi
4:50 am52 °FLow clouds.5 mph100%30.15 "Hg4 mi
3:50 am52 °FLow clouds.5 mph100%30.15 "Hg2 mi
2:50 am52 °FLow clouds.5 mph94%30.18 "Hg2 mi
1:50 am52 °FPassing clouds.6 mph94%30.18 "HgN/A
12:50 am52 °FPassing clouds.8 mph88%30.18 "HgN/A
11:50 pm
Fri, Dec 9
52 °FPassing clouds.9 mph88%30.18 "HgN/A
10:50 pm52 °FPassing clouds.7 mph88%30.21 "HgN/A
9:50 pm52 °FLow clouds.8 mph88%30.21 "HgN/A
8:50 pm52 °FLow clouds.8 mph88%30.21 "Hg6 mi
7:50 pm52 °FLow clouds.12 mph88%30.21 "Hg6 mi
6:50 pm52 °FPassing clouds.7 mph88%30.24 "HgN/A
5:50 pm54 °FClear.9 mph82%30.24 "Hg10 mi
4:50 pm55 °FClear.8 mph77%30.24 "Hg10 mi
Weather by CustomWeather, © 2016

See weather overviewHow to use our weather pages